Regional Weather Roundup
Issued by NWS

Home | Current Version | Previous Version | Graphics & Text | Print | Product List | Glossary On
Versions: 1 2 3 4 5 6 7 8 9 10 11 12 13 14 15 16 17 18 19 20 21 22 23 24 25 26 27 28 29 30 31 32 33 34 35 36 37 38 39 40 41 42 43 44 45 46 47 48 49 50
000
ASUS45 KCYS 190210
RWRWY

WYOMING REGIONAL WEATHER ROUNDUP
NATIONAL WEATHER SERVICE CHEYENNE WY
800 PM MDT FRI AUG 18 2017

NOTE:  "FAIR" INDICATES FEW OR NO CLOUDS BELOW 12,000 FEET
WITH NO SIGNIFICANT WEATHER AND/OR OBSTRUCTIONS TO VISIBILITY.

WYZ001-190300-
YELLOWSTONE NATIONAL PARK

CITY           SKY/WX    TMP DP  RH WIND       PRES   REMARKS
LK YELLOWSTONE   N/A     63  32  31 VRB3      30.31S
W YELLOWSTONE  NOT AVBL

$$
WYZ002>013-054>058-071-098>099-190300-
NORTHERN WYOMING

CITY           SKY/WX    TMP DP  RH WIND       PRES   REMARKS
JACKSON        FAIR      70  32  24 W8        30.21R
CODY           FAIR      81  35  19 CALM      30.05R
GREYBULL       FAIR      85  37  18 SE3       29.93F
WORLAND        FAIR      77  36  22 E8        29.95F
SHERIDAN       FAIR      72  48  42 CALM      29.96S
BUFFALO        FAIR      80  32  17 CALM      30.05S
GILLETTE       FAIR      77  34  21 NE7       30.00R
HULETT         FAIR      77  34  20 SE5       30.02S
NEWCASTLE      FAIR      73  34  23 E10       30.02R

$$
WYZ014>020-022>026-101>103-190300-
CENTRAL WYOMING

CITY           SKY/WX    TMP DP  RH WIND       PRES   REMARKS
BIG PINEY      FAIR      69  32  25 NW10      30.24S
PINEDALE       FAIR      68  30  24 NW10      30.25S
DUBOIS         FAIR      70  27  19 NW10      30.23S
LANDER           N/A    N/A N/A N/A MISG      30.05S
RIVERTON       FAIR      80  32  17 NE3       30.06F
CASPER         FAIR      74  36  25 N8        30.07R
DOUGLAS        FAIR      72  44  36 SE9       30.06F

$$
WYZ021-027>030-104>119-190300-
SOUTHERN WYOMING

CITY           SKY/WX    TMP DP  RH WIND       PRES   REMARKS
EVANSTON       FAIR      72  29  20 W15       30.28S
KEMMERER         N/A     70  23  17 W12       30.28S
FORT BRIDGER   FAIR      75  26  16 W15G22    30.30R
ROCK SPRINGS   FAIR      76  27  16 W14       30.22R
RAWLINS        FAIR      75  28  17 W9        30.21F
SARATOGA       FAIR      70  36  28 SW7       30.24F
LARAMIE        FAIR      66  36  32 NW9       30.26S
CHEYENNE       FAIR      73  44  35 S9        30.19R
TORRINGTON     FAIR      76  47  35 SE10      30.02S
PINE BLUFFS    FAIR      70  46  43 S6        30.12R

$$



USA.gov is the U.S. government's official web portal to all federal, state and local government web resources and services.